This is the latest recevied weather packets stored in our database for station/object TA2NC-13. If no packets are shown the sender has not sent any weather packets the latest 10 day(s).
| Time | Temp. | Humidity | Pressure | Rain* | Wind** | Luminosity | Snow |
|---|---|---|---|---|---|---|---|
| 1777459201 | 18.89° C | 31% | 1015 hPa | 0 mm | - | - | - |
| 1777458601 | 18.33° C | 29% | 1015 hPa | 0 mm | - | - | - |
| 1777458001 | 18.33° C | 34% | 1015 hPa | 0 mm | - | - | - |
| 1777457401 | 18.33° C | 32% | 1015 hPa | 0 mm | - | - | - |
| 1777456801 | 17.78° C | 30% | 1015 hPa | 0 mm | - | - | - |
| 1777456201 | 17.78° C | 36% | 1015 hPa | 0 mm | - | - | - |
| 1777455601 | 17.78° C | 35% | 1015 hPa | 0 mm | - | - | - |
| 1777455001 | 17.78° C | 36% | 1015 hPa | 0 mm | - | - | - |
| 1777454400 | 17.22° C | 32% | 1015 hPa | 0 mm | - | - | - |
| 1777453801 | 17.22° C | 38% | 1015 hPa | 0 mm | - | - | - |
| 1777453201 | 17.22° C | 39% | 1015 hPa | 0 mm | - | - | - |
| 1777452601 | 16.67° C | 38% | 1015 hPa | 0 mm | - | - | - |
| 1777452001 | 17.22° C | 39% | 1015 hPa | 0 mm | - | - | - |
| 1777451401 | 17.22° C | 37% | 1015 hPa | 0 mm | - | - | - |
| 1777450801 | 17.22° C | 38% | 1015 hPa | 0 mm | - | - | - |
| 1777450200 | 18.33° C | 42% | 1015 hPa | 0 mm | - | - | - |
| 1777449601 | 17.78° C | 39% | 1015 hPa | 0 mm | - | - | - |
| 1777449001 | 17.22° C | 42% | 1015 hPa | 0 mm | - | - | - |
| 1777448401 | 17.22° C | 43% | 1015 hPa | 0 mm | - | - | - |
| 1777447801 | 17.22° C | 43% | 1015 hPa | 0 mm | - | - | - |
| 1777447201 | 16.11° C | 43% | 1015 hPa | 0 mm | - | - | - |
| 1777446600 | 17.78° C | 43% | 1015 hPa | 0 mm | - | - | - |
| 1777446001 | 17.22° C | 44% | 1015 hPa | 0 mm | - | - | - |
| 1777445401 | 15.56° C | 44% | 1015 hPa | 0 mm | - | - | - |
| 1777444801 | 15.56° C | 44% | 1015 hPa | 0 mm | - | - | - |
* Rain latest hour (hover to see other rain measurements)
** Current wind speed in m/s (hover to see current wind gust speed)